Lid_Strength_Index
9 5 3 2 3 3 2 2 3 4 4 4 4 5 5 7 7 6 6 6 6 6 7 8 9 9 9 8 7 8 8 9 8 9 9 9 9 10 10 9 8 7 7
9 6 4 3 3 3 3 3 3 3 4 4 3 4 5 7 7 6 6 6 6 6 7 8 9 9 9 8 8 8 8 9 8 9 10 11 9 9 10 10 9 8 7
10 8 5 4 3 3 2 3 3 4 5 5 6 6 6 6 7 7 7 6 6 6 7 8 8 9 9 7 7 7 8 8 8 7 9 11 11 10 9 11 10 9 8
11 10 5 4 4 3 2 3 3 4 4 6 6 7 6 6 6 5 6 6 6 6 7 7 8 9 8 8 7 6 7 7 7 9 9 10 9 10 12 11 11 10 8
12 10 8 4 3 3 2 2 3 4 4 5 6 7 7 6 6 6 6 5 6 5 6 7 7 8 8 9 8 8 8 7 6 7 9 10 10 10 10 13 12 11 10
13 11 10 4 4 3 2 2 3 4 4 5 6 6 6 7 8 8 7 6 7 6 6 6 7 8 8 9 8 8 8 7 6 8 9 10 10 10 10 12 13 12 11
11 12 12 8 4 4 3 2 2 3 4 4 5 6 5 6 6 8 7 8 8 7 7 7 8 8 8 8 8 8 8 8 8 9 9 9 9 9 10 10 12 12 11
11 10 9 8 8 5 3 3 3 2 3 4 4 5 5 5 5 6 6 7 7 6 6 7 8 8 8 9 9 9 9 9 8 9 9 9 9 9 9 11 11 12 13
10 11 10 8 6 4 3 3 3 2 4 4 4 4 4 5 6 6 6 6 7 7 7 7 7 8 8 9 9 9 9 10 10 10 10 10 10 10 10 11 10 10 13
10 10 10 10 9 8 8 6 3 2 2 4 3 4 4 4 5 5 6 6 6 6 7 7 8 8 9 9 9 9 10 10 10 10 10 10 11 11 11 11 11 11 12
11 11 11 11 10 8 8 8 7 5 2 3 4 4 5 5 5 6 6 6 6 6 7 7 7 8 9 9 9 10 10 10 10 11 11 12 12 13 12 12 12 12 13
11 11 11 11 11 10 9 8 8 8 7 5 3 3 4 4 4 4 5 5 5 6 6 6 7 8 8 9 9 9 9 10 11 11 12 13 13 14 14 14 14 14 14
13 12 12 12 11 10 10 10 9 8 7 6 3 2 3 3 3 3 3 4 4 4 5 6 7 8 8 8 9 9 10 11 11 12 13 14 14 15 15 15 15 14 14
15 14 13 13 12 11 11 10 10 9 8 6 5 3 2 3 4 4 4 5 4 5 5 5 7 7 7 8 9 9 10 10 11 12 13 14 14 15 14 15 15 15 15
15 14 14 13 12 12 11 11 10 9 8 8 7 6 3 2 3 3 4 4 4 4 5 5 6 6 7 8 8 9 10 11 12 13 13 13 13 12 13 14 15 14 15
16 15 14 13 13 12 12 11 10 10 9 8 7 6 5 3 3 4 4 4 4 5 4 5 6 7 7 7 7 8 10 11 12 13 13 13 12 11 11 11 12 13 15
15 15 14 14 13 13 12 11 9 9 9 8 7 6 5 5 4 4 5 5 5 5 5 5 6 7 7 6 7 8 10 11 12 12 13 13 12 12 12 11 11 11 12
16 15 15 14 14 13 12 10 8 9 9 9 8 7 7 6 6 6 6 6 6 6 6 6 6 6 6 6 6 8 10 11 12 12 12 12 12 11 11 12 13 13 13
16 14 14 14 14 14 12 10 8 8 9 9 9 8 8 7 7 7 7 7 7 7 7 7 7 7 6 6 7 9 10 11 11 12 11 11 12 11 11 13 14 14 13
15 16 14 13 13 13 12 11 8 8 9 9 10 9 8 8 8 8 8 8 8 8 8 8 7 6 6 6 7 9 10 12 13 12 11 11 12 10 11 14 14 15 15
16 15 14 14 13 12 12 12 9 10 9 9 9 9 8 8 9 9 9 10 10 9 9 9 8 8 7 7 7 8 11 12 12 13 13 12 10 10 10 12 14 14 14
16 15 15 14 13 12 12 12 11 9 9 10 10 9 9 9 9 10 11 11 11 12 11 11 10 9 9 8 8 8 10 10 12 13 12 11 10 10 11 12 11 11 13
16 15 15 14 13 12 12 12 12 10 10 11 10 9 9 9 9 10 10 11 11 11 12 11 12 11 10 9 8 8 9 10 12 12 11 10 10 10 11 11 10 12 14
16 16 15 15 14 14 12 12 11 11 12 12 11 11 11 10 10 10 10 10 11 11 12 13 13 13 12 11 10 10 11 10 11 11 11 11 11 12 12 12 14 15 15
15 15 15 15 14 13 12 12 12 11 11 13 12 11 11 11 11 11 10 10 10 10 11 12 13 13 13 12 11 11 12 13 12 12 12 14 15 15 16 16 15 15 15
15 15 15 15 14 14 13 12 12 11 10 11 13 12 12 12 11 11 11 9 9 9 9 10 11 11 11 10 10 11 11 10 10 13 14 15 15 16 16 16 16 15 15